• In Österreich
  • Länderverzeichnis
  • Für 7 Tage
  • Wassertemperatur
  • Satellitenkarten
  • Wetterkarte
  • News
  • Widgets
  • user-avatar
    Anmelden

    Stündliche Wetter Lubango

    Heute, 24 Mai, Donnerstag

    Zeit Temperatur Niederschläge Wind Luftdruck Luftfeuchtigkeit
    00:00 +14°C° 0 mm 2 m/S 610 mmHg 41%
    01:00 +13°C° 0 mm 2 m/S 610 mmHg 42%
    02:00 +12°C° 0 mm 2 m/S 609 mmHg 41%
    03:00 +12°C° 0 mm 2 m/S 609 mmHg 41%
    04:00 +12°C° 0 mm 2 m/S 609 mmHg 40%
    05:00 +12°C° 0 mm 2 m/S 609 mmHg 41%
    06:00 +12°C° 0 mm 2 m/S 609 mmHg 41%
    07:00 +13°C° 0 mm 2 m/S 610 mmHg 42%
    08:00 +16°C° 0 mm 3 m/S 611 mmHg 37%
    09:00 +19°C° 0 mm 4 m/S 612 mmHg 32%
    10:00 +22°C° 0 mm 4 m/S 613 mmHg 27%
    11:00 +22°C° 0 mm 4 m/S 613 mmHg 26%
    12:00 +23°C° 0 mm 4 m/S 612 mmHg 24%
    13:00 +25°C° 0 mm 3 m/S 612 mmHg 23%
    14:00 +25°C° 0 mm 3 m/S 612 mmHg 24%
    15:00 +24°C° 0 mm 3 m/S 611 mmHg 26%
    16:00 +24°C° 0 mm 3 m/S 611 mmHg 27%
    17:00 +21°C° 0 mm 2 m/S 610 mmHg 31%
    18:00 +18°C° 0 mm 2 m/S 610 mmHg 35%
    19:00 +16°C° 0 mm 2 m/S 609 mmHg 39%
    20:00 +15°C° 0 mm 2 m/S 609 mmHg 41%
    21:00 +14°C° 0 mm 1 m/S 609 mmHg 43%
    22:00 +14°C° 0 mm 1 m/S 609 mmHg 45%
    23:00 +13°C° 0 mm 1 m/S 609 mmHg 46%

    Morgen, 25 Mai, Freitag

    Zeit Temperatur Niederschläge Wind Luftdruck Luftfeuchtigkeit
    00:00 +13°C° 0 mm 1 m/S 608 mmHg 47%
    01:00 +12°C° 0 mm 1 m/S 608 mmHg 48%
    02:00 +12°C° 0 mm 2 m/S 608 mmHg 49%
    03:00 +12°C° 0 mm 2 m/S 608 mmHg 49%
    04:00 +10°C° 0 mm 2 m/S 607 mmHg 50%
    05:00 +12°C° 0 mm 2 m/S 608 mmHg 51%
    06:00 +12°C° 0 mm 2 m/S 608 mmHg 52%
    07:00 +12°C° 0 mm 2 m/S 608 mmHg 53%
    08:00 +15°C° 0 mm 2 m/S 609 mmHg 45%
    09:00 +18°C° 0 mm 3 m/S 611 mmHg 37%
    10:00 +22°C° 0 mm 3 m/S 612 mmHg 30%
    11:00 +24°C° 0 mm 3 m/S 612 mmHg 28%
    12:00 +25°C° 0 mm 3 m/S 612 mmHg 26%
    13:00 +26°C° 0 mm 2 m/S 612 mmHg 24%
    14:00 +26°C° 0 mm 2 m/S 611 mmHg 25%
    15:00 +25°C° 0 mm 2 m/S 611 mmHg 26%
    16:00 +25°C° 0 mm 2 m/S 610 mmHg 27%
    17:00 +21°C° 0 mm 2 m/S 610 mmHg 31%
    18:00 +20°C° 0 mm 1 m/S 609 mmHg 36%
    19:00 +16°C° 0 mm 1 m/S 608 mmHg 40%
    20:00 +15°C° 0 mm 1 m/S 608 mmHg 43%
    21:00 +15°C° 0 mm 2 m/S 608 mmHg 46%
    22:00 +14°C° 0 mm 2 m/S 608 mmHg 48%
    23:00 +13°C° 0 mm 2 m/S 608 mmHg 50%

    übermorgen, 26 Mai, Samstag

    Zeit Temperatur Niederschläge Wind Luftdruck Luftfeuchtigkeit
    00:00 +13°C° 0 mm 2 m/S 608 mmHg 51%
    01:00 +13°C° 0 mm 2 m/S 608 mmHg 52%
    02:00 +12°C° 0 mm 2 m/S 608 mmHg 55%
    03:00 +12°C° 0 mm 2 m/S 607 mmHg 58%
    04:00 +12°C° 0 mm 2 m/S 607 mmHg 61%
    05:00 +12°C° 0 mm 2 m/S 608 mmHg 62%
    06:00 +12°C° 0 mm 2 m/S 608 mmHg 62%
    07:00 +12°C° 0 mm 2 m/S 608 mmHg 63%
    08:00 +16°C° 0 mm 3 m/S 610 mmHg 54%
    09:00 +19°C° 0 mm 3 m/S 611 mmHg 44%
    10:00 +22°C° 0 mm 4 m/S 613 mmHg 35%
    11:00 +24°C° 0 mm 3 m/S 612 mmHg 32%
    12:00 +25°C° 0 mm 3 m/S 612 mmHg 29%
    13:00 +26°C° 0 mm 2 m/S 612 mmHg 26%
    14:00 +26°C° 0 mm 2 m/S 612 mmHg 27%
    15:00 +26°C° 0 mm 2 m/S 611 mmHg 28%
    16:00 +25°C° 0 mm 2 m/S 611 mmHg 29%
    17:00 +23°C° 0 mm 1 m/S 610 mmHg 34%
    18:00 +20°C° 0 mm 1 m/S 610 mmHg 40%
    19:00 +18°C° 0 mm 1 m/S 609 mmHg 45%
    20:00 +16°C° 0 mm 1 m/S 609 mmHg 47%
    21:00 +15°C° 0 mm 1 m/S 609 mmHg 49%
    22:00 +14°C° 0 mm 1 m/S 609 mmHg 51%
    23:00 +13°C° 0 mm 1 m/S 609 mmHg 51%

    27 Mai, Sonntag

    Zeit Temperatur Niederschläge Wind Luftdruck Luftfeuchtigkeit
    00:00 +13°C° 0 mm 1 m/S 609 mmHg 51%
    01:00 +13°C° 0 mm 1 m/S 609 mmHg 51%
    02:00 +12°C° 0 mm 2 m/S 608 mmHg 53%
    03:00 +12°C° 0 mm 2 m/S 608 mmHg 54%
    04:00 +12°C° 0 mm 2 m/S 608 mmHg 56%
    05:00 +12°C° 0 mm 2 m/S 608 mmHg 56%
    06:00 +12°C° 0 mm 2 m/S 609 mmHg 56%
    07:00 +13°C° 0 mm 2 m/S 609 mmHg 56%
    08:00 +16°C° 0 mm 3 m/S 611 mmHg 48%
    09:00 +19°C° 0 mm 3 m/S 612 mmHg 39%
    10:00 +23°C° 0 mm 4 m/S 614 mmHg 31%
    11:00 +25°C° 0 mm 3 m/S 613 mmHg 28%
    12:00 +26°C° 0 mm 3 m/S 613 mmHg 26%
    13:00 +27°C° 0 mm 2 m/S 613 mmHg 24%
    14:00 +27°C° 0 mm 2 m/S 613 mmHg 24%
    15:00 +26°C° 0 mm 2 m/S 612 mmHg 24%
    16:00 +26°C° 0 mm 2 m/S 612 mmHg 24%
    17:00 +23°C° 0 mm 2 m/S 611 mmHg 31%
    18:00 +20°C° 0 mm 1 m/S 610 mmHg 38%
    19:00 +16°C° 0 mm 1 m/S 610 mmHg 45%
    20:00 +15°C° 0 mm 1 m/S 610 mmHg 47%
    21:00 +14°C° 0 mm 1 m/S 610 mmHg 49%
    22:00 +14°C° 0 mm 1 m/S 610 mmHg 52%
    23:00 +13°C° 0 mm 1 m/S 610 mmHg 52%

    28 Mai, Montag

    Zeit Temperatur Niederschläge Wind Luftdruck Luftfeuchtigkeit
    00:00 +13°C° 0 mm 1 m/S 610 mmHg 53%
    01:00 +13°C° 0 mm 1 m/S 609 mmHg 53%
    02:00 +13°C° 0 mm 1 m/S 609 mmHg 54%
    03:00 +12°C° 0 mm 1 m/S 609 mmHg 54%
    04:00 +12°C° 0 mm 1 m/S 609 mmHg 54%
    05:00 +13°C° 0 mm 1 m/S 609 mmHg 53%
    06:00 +13°C° 0 mm 1 m/S 610 mmHg 53%
    07:00 +13°C° 0 mm 1 m/S 610 mmHg 52%
    08:00 +16°C° 0 mm 2 m/S 612 mmHg 45%
    09:00 +20°C° 0 mm 2 m/S 613 mmHg 38%
    10:00 +24°C° 0 mm 3 m/S 614 mmHg 30%
    11:00 +25°C° 0 mm 3 m/S 614 mmHg 28%
    12:00 +26°C° 0 mm 3 m/S 614 mmHg 26%
    13:00 +27°C° 0 mm 2 m/S 613 mmHg 24%
    14:00 +27°C° 0 mm 2 m/S 613 mmHg 24%
    15:00 +27°C° 0 mm 2 m/S 613 mmHg 24%
    16:00 +27°C° 0 mm 2 m/S 612 mmHg 24%
    17:00 +23°C° 0 mm 2 m/S 612 mmHg 30%
    18:00 +20°C° 0 mm 1 m/S 611 mmHg 37%
    19:00 +16°C° 0 mm 1 m/S 610 mmHg 44%
    20:00 +15°C° 0 mm 1 m/S 610 mmHg 46%
    21:00 +14°C° 0 mm 1 m/S 610 mmHg 49%
    22:00 +14°C° 0 mm 1 m/S 610 mmHg 51%
    23:00 +14°C° 0 mm 1 m/S 610 mmHg 52%

    29 Mai, Dienstag

    Zeit Temperatur Niederschläge Wind Luftdruck Luftfeuchtigkeit
    00:00 +13°C° 0 mm 1 m/S 610 mmHg 52%
    01:00 +13°C° 0 mm 1 m/S 609 mmHg 52%
    02:00 +13°C° 0 mm 1 m/S 609 mmHg 52%
    03:00 +13°C° 0 mm 1 m/S 609 mmHg 51%
    04:00 +13°C° 0 mm 1 m/S 609 mmHg 51%
    05:00 +13°C° 0 mm 1 m/S 609 mmHg 50%
    06:00 +13°C° 0 mm 1 m/S 609 mmHg 49%
    07:00 +13°C° 0 mm 1 m/S 610 mmHg 48%
    08:00 +17°C° 0 mm 2 m/S 611 mmHg 41%
    09:00 +20°C° 0 mm 2 m/S 612 mmHg 35%
    10:00 +25°C° 0 mm 2 m/S 614 mmHg 28%
    11:00 +26°C° 0 mm 2 m/S 614 mmHg 26%
    12:00 +27°C° 0 mm 2 m/S 613 mmHg 23%
    13:00 +28°C° 0 mm 1 m/S 613 mmHg 21%
    14:00 +28°C° 0 mm 1 m/S 613 mmHg 21%
    15:00 +27°C° 0 mm 1 m/S 612 mmHg 22%
    16:00 +27°C° 0 mm 1 m/S 612 mmHg 22%
    17:00 +24°C° 0 mm 1 m/S 611 mmHg 29%
    18:00 +21°C° 0 mm 1 m/S 610 mmHg 36%
    19:00 +16°C° 0 mm 1 m/S 609 mmHg 42%
    20:00 +16°C° 0 mm 1 m/S 609 mmHg 45%
    21:00 +15°C° 0 mm 1 m/S 609 mmHg 48%
    22:00 +14°C° 0 mm 1 m/S 609 mmHg 51%
    23:00 +14°C° 0 mm 1 m/S 609 mmHg 51%
    Mehr zeigen